This is the latest recevied weather packets stored in our database for station/object IK1QAD-3. If no packets are shown the sender has not sent any weather packets the latest 10 day(s).
| Time | Temp. | Humidity | Pressure | Rain* | Wind** | Luminosity | Snow |
|---|---|---|---|---|---|---|---|
| 1777486410 | 16.11° C | 60% | 1014.5 hPa | 0 mm | - | - | - |
| 1777486105 | 16.67° C | 59% | 1014.6 hPa | 0 mm | - | - | - |
| 1777485822 | 16.67° C | 60% | 1014.5 hPa | 0 mm | - | - | - |
| 1777485513 | 16.67° C | 61% | 1014.5 hPa | 0 mm | - | - | - |
| 1777485215 | 16.67° C | 62% | 1014.4 hPa | 0 mm | - | - | - |
| 1777484913 | 16.67° C | 61% | 1014.3 hPa | 0 mm | - | - | - |
| 1777484605 | 17.22° C | 61% | 1014.3 hPa | 0 mm | - | - | - |
| 1777484322 | 17.22° C | 61% | 1014.3 hPa | 0 mm | - | - | - |
| 1777484020 | 17.78° C | 60% | 1014.3 hPa | 0 mm | - | - | - |
| 1777483716 | 18.89° C | 60% | 1014.3 hPa | 0 mm | - | - | - |
| 1777483417 | 19.44° C | 58% | 1014.4 hPa | 0 mm | - | - | - |
| 1777483112 | 20° C | 56% | 1014.3 hPa | 0 mm | - | - | - |
| 1777482810 | 20.56° C | 52% | 1014.4 hPa | 0 mm | - | - | - |
| 1777482508 | 20° C | 52% | 1014.4 hPa | 0 mm | - | - | - |
| 1777482205 | 20° C | 50% | 1014.3 hPa | 0 mm | - | - | - |
| 1777481923 | 20° C | 54% | 1014.3 hPa | 0 mm | - | - | - |
| 1777481617 | 20.56° C | 53% | 1014.3 hPa | 0 mm | - | - | - |
| 1777481315 | 20.56° C | 56% | 1014.3 hPa | 0 mm | - | - | - |
| 1777481013 | 20.56° C | 54% | 1014.2 hPa | 0 mm | - | - | - |
| 1777480707 | 20.56° C | 52% | 1014.3 hPa | 0 mm | - | - | - |
| 1777480404 | 21.11° C | 50% | 1014.3 hPa | 0 mm | - | - | - |
| 1777480120 | 21.11° C | 49% | 1014.2 hPa | 0 mm | - | - | - |
| 1777479813 | 21.11° C | 49% | 1014.2 hPa | 0 mm | - | - | - |
| 1777479511 | 21.11° C | 47% | 1014.2 hPa | 0 mm | - | - | - |
| 1777479222 | 21.11° C | 46% | 1014.3 hPa | 0 mm | - | - | - |
* Rain latest hour (hover to see other rain measurements)
** Current wind speed in m/s (hover to see current wind gust speed)